• In Hungary
  • List of Countries
  • For 7 days
  • Water Temperature
  • Satellite Maps
  • Weather Map
  • News
  • Weather Widgets
  • user-avatar
    Login

    Hourly Weather Torrington

    Today, 19 June, Tuesday

    Time Temperature Precipitation Wind Pressure Humidity
    00:00 +24°C° 1 mm 2 mps 736 mmHg 95%
    01:00 +24°C° 1 mm 3 mps 736 mmHg 97%
    02:00 +22°C° 0.5 mm 3 mps 736 mmHg 97%
    03:00 +22°C° 0.5 mm 3 mps 736 mmHg 97%
    04:00 +23°C° 0.5 mm 2 mps 736 mmHg 97%
    05:00 +22°C° 0 mm 3 mps 736 mmHg 93%
    06:00 +22°C° 0 mm 3 mps 736 mmHg 89%
    07:00 +23°C° 0 mm 4 mps 737 mmHg 85%
    08:00 +25°C° 0 mm 4 mps 737 mmHg 72%
    09:00 +26°C° 0 mm 4 mps 737 mmHg 58%
    10:00 +28°C° 0 mm 5 mps 738 mmHg 44%
    11:00 +29°C° 0 mm 5 mps 738 mmHg 40%
    12:00 +29°C° 0 mm 5 mps 738 mmHg 36%
    13:00 +30°C° 0 mm 5 mps 738 mmHg 32%
    14:00 +30°C° 0 mm 4 mps 738 mmHg 32%
    15:00 +29°C° 0 mm 4 mps 738 mmHg 32%
    16:00 +29°C° 0 mm 4 mps 738 mmHg 32%
    17:00 +27°C° 0 mm 3 mps 738 mmHg 41%
    18:00 +25°C° 0 mm 2 mps 739 mmHg 51%
    19:00 +21°C° 0 mm 2 mps 739 mmHg 60%
    20:00 +20°C° 0 mm 2 mps 739 mmHg 61%
    21:00 +19°C° 0 mm 2 mps 740 mmHg 62%
    22:00 +17°C° 0 mm 2 mps 740 mmHg 63%
    23:00 +18°C° 0 mm 1 mps 740 mmHg 64%

    Tomorrow, 20 June, Wednesday

    Time Temperature Precipitation Wind Pressure Humidity
    00:00 +16°C° 0 mm 1 mps 740 mmHg 66%
    01:00 +15°C° 0 mm 1 mps 740 mmHg 67%
    02:00 +14°C° 0 mm 1 mps 740 mmHg 67%
    03:00 +14°C° 0 mm 1 mps 740 mmHg 67%
    04:00 +14°C° 0 mm 1 mps 740 mmHg 66%
    05:00 +16°C° 0 mm 1 mps 740 mmHg 62%
    06:00 +17°C° 0 mm 0 mps 740 mmHg 59%
    07:00 +19°C° 0 mm 0 mps 740 mmHg 55%
    08:00 +23°C° 0 mm 1 mps 740 mmHg 48%
    09:00 +25°C° 0 mm 1 mps 740 mmHg 42%
    10:00 +27°C° 0 mm 2 mps 740 mmHg 36%
    11:00 +27°C° 0 mm 2 mps 740 mmHg 36%
    12:00 +28°C° 0 mm 3 mps 739 mmHg 36%
    13:00 +28°C° 0 mm 3 mps 739 mmHg 37%
    14:00 +27°C° 0 mm 3 mps 739 mmHg 43%
    15:00 +26°C° 0 mm 3 mps 738 mmHg 49%
    16:00 +25°C° 0 mm 3 mps 738 mmHg 55%
    17:00 +24°C° 0 mm 3 mps 738 mmHg 60%
    18:00 +23°C° 0 mm 2 mps 737 mmHg 65%
    19:00 +20°C° 0 mm 2 mps 737 mmHg 70%
    20:00 +19°C° 0 mm 2 mps 738 mmHg 73%
    21:00 +18°C° 0 mm 2 mps 738 mmHg 76%
    22:00 +19°C° 0 mm 1 mps 738 mmHg 79%
    23:00 +18°C° 0 mm 1 mps 738 mmHg 82%

    Day after tomorrow, 21 June, Thursday

    Time Temperature Precipitation Wind Pressure Humidity
    00:00 +16°C° 0 mm 1 mps 737 mmHg 85%
    01:00 +15°C° 0 mm 1 mps 737 mmHg 88%
    02:00 +14°C° 0 mm 1 mps 737 mmHg 88%
    03:00 +14°C° 0 mm 1 mps 737 mmHg 88%
    04:00 +13°C° 0 mm 1 mps 737 mmHg 88%
    05:00 +15°C° 0 mm 2 mps 738 mmHg 80%
    06:00 +17°C° 0 mm 2 mps 738 mmHg 71%
    07:00 +19°C° 0 mm 3 mps 739 mmHg 63%
    08:00 +21°C° 0 mm 3 mps 739 mmHg 55%
    09:00 +22°C° 0 mm 3 mps 740 mmHg 46%
    10:00 +25°C° 0 mm 3 mps 740 mmHg 38%
    11:00 +26°C° 0 mm 3 mps 740 mmHg 33%
    12:00 +27°C° 0 mm 3 mps 740 mmHg 29%
    13:00 +28°C° 0 mm 3 mps 740 mmHg 25%
    14:00 +28°C° 0 mm 3 mps 740 mmHg 26%
    15:00 +28°C° 0 mm 3 mps 740 mmHg 27%
    16:00 +27°C° 0 mm 3 mps 740 mmHg 28%
    17:00 +25°C° 0 mm 2 mps 741 mmHg 38%
    18:00 +23°C° 0 mm 2 mps 741 mmHg 49%
    19:00 +20°C° 0 mm 1 mps 741 mmHg 59%
    20:00 +19°C° 0 mm 1 mps 742 mmHg 63%
    21:00 +16°C° 0 mm 1 mps 743 mmHg 68%
    22:00 +14°C° 0 mm 1 mps 743 mmHg 72%
    23:00 +13°C° 0 mm 1 mps 743 mmHg 75%

    22 June, Friday

    Time Temperature Precipitation Wind Pressure Humidity
    00:00 +13°C° 0 mm 1 mps 744 mmHg 77%
    01:00 +12°C° 0 mm 1 mps 744 mmHg 80%
    02:00 +12°C° 0 mm 1 mps 744 mmHg 79%
    03:00 +11°C° 0 mm 1 mps 744 mmHg 78%
    04:00 +11°C° 0 mm 1 mps 744 mmHg 77%
    05:00 +13°C° 0 mm 1 mps 744 mmHg 69%
    06:00 +15°C° 0 mm 0 mps 745 mmHg 60%
    07:00 +17°C° 0 mm 0 mps 745 mmHg 52%
    08:00 +22°C° 0 mm 1 mps 745 mmHg 47%
    09:00 +24°C° 0 mm 1 mps 745 mmHg 41%
    10:00 +26°C° 0 mm 2 mps 746 mmHg 36%
    11:00 +27°C° 0 mm 2 mps 745 mmHg 36%
    12:00 +28°C° 0 mm 2 mps 745 mmHg 35%
    13:00 +29°C° 0 mm 3 mps 744 mmHg 35%
    14:00 +29°C° 0 mm 3 mps 744 mmHg 37%
    15:00 +29°C° 0 mm 3 mps 744 mmHg 38%
    16:00 +29°C° 0 mm 3 mps 744 mmHg 40%
    17:00 +26°C° 0 mm 3 mps 744 mmHg 46%
    18:00 +24°C° 0 mm 3 mps 744 mmHg 52%
    19:00 +21°C° 0 mm 3 mps 744 mmHg 59%
    20:00 +20°C° 0 mm 3 mps 744 mmHg 60%
    21:00 +19°C° 0 mm 2 mps 744 mmHg 62%
    22:00 +17°C° 0 mm 2 mps 745 mmHg 63%
    23:00 +17°C° 0 mm 2 mps 744 mmHg 66%

    23 June, Saturday

    Time Temperature Precipitation Wind Pressure Humidity
    00:00 +16°C° 0 mm 2 mps 744 mmHg 69%
    01:00 +16°C° 0 mm 2 mps 744 mmHg 72%
    02:00 +16°C° 0 mm 1 mps 744 mmHg 74%
    03:00 +16°C° 0 mm 1 mps 744 mmHg 75%
    04:00 +16°C° 0 mm 1 mps 744 mmHg 77%
    05:00 +17°C° 0 mm 2 mps 744 mmHg 74%
    06:00 +18°C° 0 mm 2 mps 744 mmHg 71%
    07:00 +19°C° 0 mm 2 mps 744 mmHg 68%
    08:00 +21°C° 0 mm 3 mps 744 mmHg 63%
    09:00 +22°C° 0 mm 3 mps 744 mmHg 58%
    10:00 +24°C° 0 mm 3 mps 744 mmHg 53%
    11:00 +25°C° 0 mm 4 mps 743 mmHg 51%
    12:00 +26°C° 0 mm 4 mps 743 mmHg 48%
    13:00 +27°C° 0 mm 5 mps 742 mmHg 46%
    14:00 +27°C° 0 mm 5 mps 742 mmHg 49%
    15:00 +27°C° 0 mm 5 mps 741 mmHg 52%
    16:00 +27°C° 0 mm 5 mps 741 mmHg 54%
    17:00 +25°C° 0 mm 5 mps 740 mmHg 62%
    18:00 +23°C° 0 mm 5 mps 740 mmHg 70%
    19:00 +22°C° 0 mm 4 mps 740 mmHg 78%
    20:00 +22°C° 0.1 mm 4 mps 739 mmHg 82%
    21:00 +21°C° 0.1 mm 4 mps 739 mmHg 87%
    22:00 +21°C° 0.1 mm 4 mps 739 mmHg 91%
    23:00 +21°C° 0.6 mm 4 mps 738 mmHg 93%

    24 June, Sunday

    Time Temperature Precipitation Wind Pressure Humidity
    00:00 +21°C° 0.6 mm 4 mps 738 mmHg 96%
    01:00 +21°C° 0.6 mm 4 mps 737 mmHg 98%
    02:00 +21°C° 0.1 mm 3 mps 737 mmHg 98%
    03:00 +21°C° 0.1 mm 3 mps 736 mmHg 98%
    04:00 +22°C° 0.1 mm 3 mps 736 mmHg 98%
    05:00 +22°C° 0.1 mm 3 mps 736 mmHg 97%
    06:00 +23°C° 0.1 mm 4 mps 736 mmHg 96%
    07:00 +23°C° 0.1 mm 4 mps 736 mmHg 96%
    08:00 +26°C° 0 mm 4 mps 736 mmHg 83%
    09:00 +28°C° 0 mm 5 mps 736 mmHg 71%
    10:00 +30°C° 0 mm 5 mps 736 mmHg 58%
    11:00 +30°C° 0 mm 5 mps 736 mmHg 56%
    12:00 +30°C° 0 mm 6 mps 736 mmHg 55%
    13:00 +32°C° 0 mm 6 mps 736 mmHg 53%
    14:00 +30°C° 0 mm 6 mps 736 mmHg 53%
    15:00 +29°C° 0 mm 5 mps 736 mmHg 53%
    16:00 +29°C° 0 mm 5 mps 737 mmHg 53%
    17:00 +27°C° 0 mm 4 mps 737 mmHg 59%
    18:00 +26°C° 0 mm 4 mps 737 mmHg 65%
    19:00 +24°C° 0 mm 3 mps 738 mmHg 72%
    20:00 +22°C° 0 mm 3 mps 738 mmHg 77%
    21:00 +20°C° 0 mm 2 mps 739 mmHg 82%
    22:00 +19°C° 0 mm 2 mps 739 mmHg 87%
    23:00 +18°C° 0 mm 2 mps 739 mmHg 89%
    Show more